Vertical_Velocity
4 -2 -1 -2 0 2 -2 1 -3 8 -3 1 -9 -4 -1 -1 -2 -1 -2 -5 -2 -5 -4 -3 -2 -4 -1 1 3 3 4 -0 0 -1 -1 1 -2 7 -3 -4 -3 -5 -2 -1
2 -2 1 1 -2 1 1 -0 0 -2 -2 2 -5 -3 -4 1 -2 -7 -5 -8 -8 -7 -4 -5 -7 -3 -3 -3 -2 -3 1 2 1 -3 2 1 1 -0 1 -2 -4 -5 -2 -6
-2 1 1 -7 4 3 3 -4 -1 -5 -0 2 -0 1 1 2 -1 -3 -4 -4 -4 -3 -2 -3 -4 -4 -3 -3 -3 -3 1 1 -1 -2 1 -2 -2 -2 -2 -1 -1 -0 1 3
1 -1 -10 16 -0 -4 3 1 -1 2 -0 1 1 1 -1 -1 -2 1 1 2 3 -3 -5 -4 -6 -5 -3 -0 -3 -0 -4 -2 -1 -5 -3 1 -1 1 2 1 -2 2 2 4
-4 0 2 1 -2 3 1 -1 1 4 -1 2 1 3 0 0 5 3 3 3 -0 -0 -2 -0 -1 -1 -1 2 3 3 1 -2 -3 1 0 0 -5 17 1 1 2 -0 -0 1
-0 -1 -2 5 4 -2 2 -4 -1 0 2 -0 -1 2 2 -1 6 1 0 -1 -0 -1 -0 3 6 2 2 0 -1 0 1 3 3 -0 -2 3 3 1 0 -1 0 0 2 -3
-2 -4 0 9 2 -1 -5 11 5 2 3 2 -1 -1 -1 2 3 7 4 1 1 -0 -0 -1 2 6 4 5 5 2 -0 1 -1 -1 -1 -0 -1 -2 2 5 3 -2 -1 -5
-1 -2 -4 5 3 0 1 2 8 4 -1 2 2 1 3 2 0 -0 1 0 -0 0 -2 -5 -3 -1 -1 -3 -3 -5 -0 -0 1 0 -0 -1 1 2 1 -3 -2 0 3 2
-5 -3 -3 4 5 10 10 -0 -1 0 2 3 2 1 -1 0 -1 -2 -2 -1 -1 -1 -4 -1 -1 -0 -0 1 4 3 1 1 2 -0 -1 1 2 -2 1 0 0 0 -1 1
-4 -2 3 5 5 5 4 -1 0 1 -1 -2 -1 -1 -1 -1 -2 -2 -2 -3 -2 -2 -1 -1 -1 -0 -2 -2 -2 -2 -3 -2 -2 1 -0 -1 -1 -1 0 0 2 2 1 -1
-2 3 1 1 2 2 4 3 2 0 1 3 0 -0 1 0 -1 -1 -1 1 -1 -1 1 -0 -2 -2 -1 0 -1 -1 -0 2 1 1 -1 2 -1 1 0 3 -0 -1 -0 -4
-0 1 2 -0 -2 1 -1 -3 -2 -1 -1 -1 -0 -1 -2 -1 -1 -1 -3 0 -1 -0 2 1 0 1 0 -2 -1 0 0 -0 -1 -1 -2 -1 -0 8 4 -2 2 -1 -2 -7
2 -2 1 1 -3 -4 -4 -3 -2 -2 -1 -2 -2 -1 -1 -2 -2 -2 -2 -1 -0 1 1 0 -1 -0 -0 1 3 3 5 3 3 1 1 2 3 -2 -7 17 0 -2 5 6
2 -2 -1 -1 0 0 2 -0 0 -0 -2 -2 -1 -1 -1 0 -1 -1 -1 -1 1 2 -1 -1 -2 -1 -0 3 4 2 1 0 0 4 2 4 3 2 1 -1 -5 8 11 -1
4 0 -1 1 0 1 -1 -0 -0 -3 -0 -0 0 -0 2 -1 -1 -1 -0 1 1 -1 -0 0 -0 1 1 1 1 -1 -1 -0 -2 -1 -1 -2 -3 -2 -1 -1 0 0 4 6
3 1 -1 -0 0 1 -1 -2 -1 2 -1 -0 -0 -2 -0 -1 -2 -2 -2 -2 -2 -1 -1 1 1 0 -1 -1 -1 0 0 -0 -1 -1 -0 -0 0 -1 -0 -1 -1 2 0 4
-3 -3 2 3 3 0 1 -2 1 0 -1 -1 -1 -1 -2 -2 -1 2 2 1 1 -0 1 3 1 -0 1 1 2 2 0 1 0 2 -2 -1 1 -0 1 -0 1 -1 -0 1
3 1 -1 1 -4 -0 1 1 -1 -1 -1 -1 -0 -1 -2 0 -2 3 -1 -4 -3 -1 0 1 -2 0 -0 -3 -3 -2 -1 -2 -3 -2 -2 -1 0 0 1 -2 1 -2 1 1
4 -0 -1 -2 1 0 1 1 1 -0 0 -0 0 1 0 -0 -1 2 -1 -1 -2 -2 -1 -2 -3 -5 -2 -2 -2 -2 -2 -3 -2 -2 -2 -1 0 1 3 -1 1 -1 0 -2
-1 3 0 1 0 -0 0 0 0 -0 0 0 1 1 1 1 -3 -3 -0 2 -0 2 4 4 2 -0 -0 0 -1 -1 -2 -4 -2 -1 -1 -1 -2 -1 1 3 0 3 -0 -1
-3 -2 1 1 -1 0 -0 0 0 0 -1 -1 -1 1 -1 0 0 -1 -2 -1 1 -1 -2 -3 -4 -2 -2 -1 -1 -4 -3 -3 -2 -2 0 1 4 2 -1 -0 0 1 3 2
1 -1 0 2 1 1 0 0 0 -1 -1 0 -2 -2 1 -0 1 2 3 0 -1 -1 -2 -1 -1 -2 -3 -3 -3 -3 -2 -2 -3 -3 -1 -1 -1 1 1 -0 0 1 1 4
3 2 1 1 2 0 1 1 1 5 3 -3 -2 1 1 1 -0 -3 -7 -3 -2 -2 -4 -2 -0 -2 -2 -4 -5 -4 -2 -1 -4 -2 -0 -3 -2 -1 -0 2 2 -0 1 2
-1 1 3 1 -1 2 4 3 -1 1 1 -1 -0 2 1 0 -0 -1 -1 -2 -0 -0 -1 -2 -2 -3 -1 -3 -2 -3 -2 -1 -3 -2 -1 -3 -2 -2 -2 -2 -2 -0 1 3
2 1 3 3 -1 1 0 -1 -2 1 3 1 0 2 3 2 -2 -4 -3 -2 -1 -1 -2 -3 -4 -2 -0 -2 -2 -3 -1 -1 -2 -0 -1 -1 -1 -2 -4 -5 -3 -1 1 2
5 5 1 -1 -2 -3 1 4 3 1 -0 -1 -2 -1 -1 0 -1 -2 -2 -2 -0 -2 -3 -3 -3 -3 1 -1 -2 -2 -0 -1 -2 -1 -2 -1 -2 -2 -2 -1 -2 -2 -2 -1
-1 -1 -0 0 2 -0 -1 -2 0 2 -1 -3 -2 -1 -1 -3 -3 -3 -2 -2 -1 -1 -2 -3 -2 -1 0 -1 -1 -1 -0 -1 -1 -2 -2 -1 -2 -0 -1 -1 -1 -2 -2 -2
Height
5734 5735 5735 5734 5736 5737 5737 5738 5736 5739 5736 5738 5735 5734 5735 5737 5737 5737 5735 5733 5731 5729 5725 5722 5719 5714 5710 5706 5701 5696 5692 5686 5680 5674 5669 5664 5657 5652 5643 5635 5627 5618 5610 5600
5727 5729 5729 5729 5730 5732 5731 5731 5730 5731 5730 5731 5728 5729 5732 5732 5732 5729 5726 5723 5721 5719 5716 5713 5710 5705 5700 5695 5689 5685 5679 5674 5669 5662 5657 5652 5645 5638 5630 5621 5612 5603 5593 5582
5720 5722 5721 5720 5725 5724 5724 5723 5723 5723 5724 5726 5726 5726 5726 5725 5723 5721 5718 5717 5716 5713 5710 5705 5699 5694 5689 5685 5680 5674 5668 5664 5658 5652 5646 5639 5632 5623 5615 5606 5597 5587 5577 5566
5714 5715 5712 5717 5716 5716 5717 5718 5718 5719 5720 5721 5721 5720 5718 5717 5716 5714 5712 5710 5707 5704 5699 5693 5688 5683 5679 5674 5668 5663 5658 5653 5646 5639 5633 5626 5618 5610 5601 5591 5581 5571 5561 5549
5706 5706 5708 5709 5710 5711 5711 5711 5712 5714 5715 5715 5714 5713 5712 5710 5708 5705 5703 5700 5697 5692 5686 5681 5677 5673 5668 5662 5657 5652 5645 5639 5633 5626 5619 5613 5604 5597 5585 5574 5563 5553 5543 5532
5700 5699 5700 5703 5704 5704 5705 5705 5708 5708 5708 5707 5707 5706 5704 5702 5699 5696 5692 5689 5684 5680 5676 5671 5666 5661 5655 5649 5644 5638 5633 5627 5621 5613 5606 5597 5587 5577 5567 5557 5546 5535 5524 5514
5693 5692 5694 5698 5697 5698 5700 5707 5703 5703 5702 5701 5700 5699 5697 5694 5691 5687 5683 5678 5673 5668 5663 5658 5654 5648 5643 5638 5632 5626 5620 5612 5604 5597 5588 5579 5570 5561 5551 5541 5529 5517 5508 5498
5688 5688 5689 5691 5692 5694 5696 5696 5697 5696 5695 5694 5692 5690 5688 5685 5680 5675 5670 5665 5660 5655 5650 5645 5640 5635 5629 5623 5617 5612 5606 5598 5590 5581 5572 5563 5554 5544 5534 5523 5512 5502 5494 5485
5683 5683 5683 5685 5688 5690 5691 5690 5689 5688 5687 5685 5683 5680 5677 5673 5667 5663 5658 5653 5648 5643 5637 5632 5626 5620 5615 5610 5605 5598 5591 5583 5574 5565 5556 5548 5539 5528 5516 5506 5497 5488 5479 5472
5678 5679 5679 5681 5682 5683 5683 5682 5681 5679 5677 5674 5672 5668 5664 5660 5656 5651 5646 5640 5635 5630 5624 5618 5612 5607 5601 5596 5589 5582 5574 5565 5557 5550 5542 5531 5520 5510 5501 5491 5481 5472 5464 5457
5673 5674 5673 5673 5674 5674 5674 5673 5671 5669 5667 5664 5661 5657 5652 5647 5642 5638 5633 5628 5623 5617 5611 5605 5599 5594 5588 5581 5573 5564 5557 5551 5543 5534 5524 5514 5504 5494 5484 5474 5464 5456 5448 5441
5667 5666 5666 5665 5664 5664 5662 5661 5659 5657 5654 5651 5648 5643 5638 5634 5630 5625 5620 5615 5609 5603 5597 5591 5586 5579 5572 5564 5556 5549 5542 5534 5525 5517 5507 5497 5488 5479 5466 5456 5448 5438 5430 5422
5659 5659 5657 5657 5656 5654 5652 5650 5648 5645 5642 5638 5634 5630 5625 5621 5616 5611 5606 5601 5595 5589 5583 5578 5571 5563 5556 5549 5543 5536 5528 5518 5509 5499 5490 5480 5469 5459 5451 5446 5430 5422 5414 5404
5651 5650 5649 5648 5646 5644 5642 5639 5636 5633 5629 5625 5621 5617 5613 5608 5603 5598 5593 5587 5581 5575 5569 5562 5555 5548 5541 5535 5528 5520 5511 5501 5491 5481 5471 5461 5449 5440 5431 5423 5417 5411 5400 5388
5641 5640 5638 5637 5635 5633 5630 5627 5624 5620 5617 5613 5608 5605 5600 5595 5590 5584 5578 5573 5567 5561 5554 5547 5539 5532 5526 5519 5511 5502 5492 5482 5472 5462 5451 5440 5430 5421 5413 5405 5396 5388 5381 5372
5628 5627 5626 5624 5622 5620 5617 5614 5611 5607 5603 5599 5595 5590 5585 5580 5575 5568 5562 5557 5551 5545 5538 5531 5523 5516 5508 5501 5492 5482 5472 5461 5450 5440 5430 5421 5412 5403 5394 5385 5376 5368 5360 5351
5615 5614 5613 5611 5609 5606 5603 5600 5597 5593 5589 5585 5580 5575 5570 5564 5559 5553 5548 5542 5535 5528 5521 5514 5507 5499 5491 5482 5473 5463 5453 5443 5431 5421 5410 5402 5393 5384 5374 5364 5354 5346 5339 5333
5602 5601 5600 5598 5595 5593 5590 5586 5582 5578 5574 5569 5564 5559 5554 5549 5544 5538 5531 5523 5517 5510 5504 5496 5488 5480 5471 5461 5451 5442 5432 5422 5412 5402 5394 5385 5374 5364 5354 5343 5335 5327 5322 5316
5591 5588 5586 5583 5582 5579 5576 5572 5568 5564 5559 5555 5550 5545 5539 5534 5528 5522 5514 5506 5499 5493 5486 5478 5469 5460 5452 5442 5432 5421 5411 5402 5393 5383 5372 5363 5354 5343 5333 5324 5317 5310 5305 5300
5576 5574 5572 5570 5567 5564 5561 5557 5553 5548 5544 5540 5535 5530 5524 5517 5510 5504 5498 5491 5484 5477 5469 5460 5451 5441 5432 5422 5412 5402 5393 5383 5373 5364 5352 5342 5332 5323 5316 5307 5301 5295 5289 5284
5563 5562 5559 5556 5553 5549 5545 5542 5538 5534 5529 5525 5520 5514 5507 5500 5493 5487 5480 5474 5466 5458 5450 5441 5432 5422 5412 5403 5394 5385 5375 5364 5353 5342 5332 5324 5314 5305 5297 5290 5284 5279 5274 5268
5550 5547 5545 5541 5537 5534 5531 5527 5523 5518 5513 5508 5502 5496 5490 5484 5478 5471 5464 5456 5448 5439 5431 5422 5412 5403 5394 5386 5376 5366 5355 5343 5332 5322 5313 5303 5295 5287 5280 5272 5266 5260 5256 5251
5535 5533 5529 5526 5523 5520 5516 5512 5507 5503 5497 5490 5485 5480 5474 5467 5459 5451 5445 5438 5429 5420 5412 5404 5396 5387 5377 5367 5357 5346 5336 5325 5313 5303 5295 5286 5277 5270 5262 5255 5248 5241 5235 5230
5521 5518 5515 5511 5508 5505 5501 5497 5491 5486 5480 5474 5469 5464 5456 5449 5441 5434 5427 5419 5411 5403 5395 5387 5379 5369 5359 5349 5339 5329 5319 5308 5297 5288 5279 5269 5261 5252 5244 5237 5229 5221 5214 5210
5506 5503 5500 5496 5492 5488 5484 5479 5474 5470 5464 5458 5452 5447 5440 5431 5422 5415 5408 5401 5395 5387 5379 5370 5361 5352 5342 5332 5323 5313 5303 5293 5283 5274 5265 5256 5247 5238 5228 5218 5210 5203 5197 5193
5491 5488 5483 5478 5474 5471 5468 5463 5458 5452 5446 5439 5433 5426 5419 5412 5405 5398 5391 5385 5379 5370 5361 5352 5343 5334 5325 5315 5306 5296 5288 5278 5269 5261 5252 5243 5234 5224 5214 5205 5198 5191 5186 5181
5474 5470 5466 5462 5458 5453 5449 5445 5440 5434 5427 5420 5414 5408 5402 5395 5388 5382 5376 5369 5362 5353 5344 5335 5326 5316 5307 5297 5289 5280 5273 5265 5257 5249 5241 5232 5222 5212 5203 5196 5191 5185 5180 5176